STARLINK-30280 (57643 NORAD) Tracking and Keplerian Element Data

This shows tracking and keplerian element data for the satellite.

Feedback or suggestion? Click here.




ElementValue
Catalog57643
NameSTARLINK-30280
Epoch Orbit2384
Epoch Day13.1233387
Epoch Year2024
RAAN48.4547
Inclination43.0029
Eccentricity8.45E-05
Argument of Perigee260.6294
Mean Anonmoly99.4453
Mean Motion15.0252926
Decay Rate2E-08
L11 57643U 23122M 24013.12333870 .00000002 00000+0 15208-4 0 9993
L22 57643 43.0029 48.4547 0000845 260.6294 99.4453 15.02529260 23846



Live tracking and technical data element details for STARLINK-30280 (NORAD 57643). STARLINK-30280 can be tracked NOW for your location showing map with azimuth and elevation plus other details from your city location.







IsCatalogInMostPopularTable: catalog: 57643, numindb: 27
Update: records affected: 1



GetName: 57643 STARLINK-30280

Hit Count: updated at: Thu, 22 Feb 2024 00:10:20 GMT